www.pogodaiklimat.ru

Погода и климат >> Архив погоды >> Россия >> Свердловская область >> Алапаевск


ПОГОДА в Алапаевске

  • Прогноз погоды в Алапаевске
  • Монитор погоды в Алапаевске

АРХИВ ПОГОДЫ в Алапаевске

Время (UTC), дата Ветер
(напр.,м/с)
 
Видим.   Явления Облачность Т
(С)
Тd
(С)
f
(%)
Тe
(С)
Тes
(С)
Комфортность P
(гПа)
Po
(гПа)
Тmin
(С)
Tmax
(С)
R
(мм)
R24
(мм)
S
(см)
09 13.04 СЗ 3 50 км 9/3 1000 м
[Cu hum Ci]
+8.1 -8.1 31 +6 +11 1018.7 1002.8
12 13.04 С 2 50 км 9/0
[Ci fib]
+8.7 -10.4 25 +8 +11 1018.7 1002.8
15 13.04 СЗ 1 50 км 6/0
[Ac lent]
+4.9 -9.5 34 +5 +5 1019.4 1003.3 +9.4
18 13.04 СВ 2 20 км ясно +1.2 -11.0 40 -1 -1 1021.8 1005.5
21 13.04 СВ 2 20 км 4/0
[Ac lent]
-1.2 -10.4 50 -4 -4 1024.5 1008.0
00 14.04 СВ 1 20 км 8/0
[Ac lent]
-2.8 -10.4 56 -4 -4 1026.0 1009.4
03 14.04 СВ 2 50 км 3/0
[Ac lent]
-2.4 -11.5 50 -6 -4 1027.1 1010.5 -3.6
06 14.04 СВ 2 50 км ясно +0.7 -13.9 33 -2 +7 1027.9 1011.4
09 14.04 СВ 2 50 км ясно +2.6 -16.6 23 +1 +10 опасность
простуды
1027.6 1011.2
12 14.04 В 2 50 км ясно +2.7 -16.4 23 +1 +4 1027.1 1010.7
15 14.04 В 1 50 км ясно -1.6 -14.0 38 -3 -3 1026.9 1010.3 +3.2
18 14.04 штиль 0 20 км ясно -5.6 -13.4 54 -6 -6 1026.8 1010.0
21 14.04 штиль 0 20 км ясно -8.0 -10.3 83 -9 -9 1025.9 1009.0
00 15.04 штиль 0 20 км ясно -10.1 -11.6 89 -10 -10 1025.0 1007.9
03 15.04 ЮЗ 2 50 км ясно -4.0 -11.8 55 -8 -5 1022.9 1006.2 -10.3
06 15.04 З 3 50 км ясно +3.6 -15.6 23 +1 +8 1019.8 1003.6
09 15.04 З 3 50 км 3/0
[Ci fib]
+7.2 -16.5 17 +5 +13 1016.3 1000.4
12 15.04 З 3
{10}
50 км 4/0
[Ci fib]
+8.5 -17.1 14 +7 +10 1013.0 997.2
15 15.04 З 3
{11}
50 км 8/0
[Ci fib]
+4.5 -12.8 27 +2 +2 1011.9 995.9 +8.6
18 15.04 З 2 20 км 4/0
[Ci fib]
+1.7 -11.4 37 -1 -1 1010.2 994.1
21 15.04 З 3 20 км 10/0
[Ac As]
+2.1 -5.1 59 -2 -2 1008.4 992.3
00 16.04 З 3 20 км 10/0
[Ac As]
+1.9 -2.8 71 -2 -2 1006.4 990.4
03 16.04 З 2 10 км слаб. снег 10/0
[As op]
+0.9 -0.5 90 -3 -2 1004.9 988.9 +0.7 0.4
06 16.04 С 2
{10}
50 км слаб. снег 10/0
[As op]
+0.4 -1.7 86 -3 -1 1005.2 989.1 -0.4
09 16.04 С 3 50 км {снег} 10/10 600 м
[Cb cap]
+2.0 -3.7 66 -2 -2 1005.3 989.3
12 16.04 С 2 20 км слаб. ливневой снег 10/8 600 м
[Cb cap As op]
-1.0 -3.5 83 -5 -5 1007.2 991.0
15 16.04 СВ 3 50 км 10/0
[As op]
-2.0 -9.7 56 -6 -6 1010.1 993.8 +2.4 2
18 16.04 С 5
{10}
20 км {ливн. осадки} 3/0
[Ac trans]
-4.8 -13.4 51 -11 -11 1014.0 997.4
21 16.04 С 5
{11}
20 км 6/0
[Ac As]
-8.1 -15.9 53 -15 -15 1017.5 1000.7
00 17.04 С 5
{11}
20 км 6/0
[Ac As]
-9.4 -15.2 63 -17 -17 1019.3 1002.4
03 17.04 С 6 10 км слаб. снег 10/0
[As op]
-9.7 -13.9 71 -18 -18 1021.1 1004.1 -10.0 0.0
06 17.04 С 5
{12}
50 км {снег} 9/9 600 м
[Cb cap]
-7.9 -13.8 63 -15 -15 1023.4 1006.5
09 17.04 С 6-10
{12}
50 км 3/3 1000 м
[Cu hum]
-2.8 -16.6 34 -9 -6 1024.6 1008.1
12 17.04 С 5
{12}
50 км 3/3 1000 м
[Cu hum]
-1.3 -17.0 29 -7 -5 1025.7 1009.2
15 17.04 С 2 50 км 6/0
[Ci fib]
-3.1 -17.8 31 -6 -6 1026.7 1010.0 -1.2
18 17.04 З 1 20 км ясно -6.6 -14.9 52 -9 -9 1027.3 1010.5
21 17.04 З 2 20 км ясно -7.9 -15.5 54 -12 -12 1027.6 1010.6
00 18.04 З 2 20 км ясно -7.6 -15.4 54 -12 -12 1028.1 1011.1
03 18.04 З 2 50 км 9/0
[Ci fib]
-4.7 -15.0 44 -8 -6 1027.9 1011.1 -8.2
06 18.04 СЗ 6 50 км ясно +1.4 -17.8 22 -4 0 1026.8 1010.4
09 18.04 З 3
{10}
50 км ясно +4.6 -18.4 17 +2 +11 опасность
простуды
1026.6 1010.3
12 18.04 З 3
{11}
50 км ясно +5.8 -18.0 16 +4 +7 1025.9 1009.8
15 18.04 СЗ 1 50 км ясно +3.4 -16.3 22 +3 +3 1025.6 1009.3 +6.6
18 18.04 З 2 20 км ясно -2.9 -10.9 54 -6 -6 1026.5 1009.8
21 18.04 З 2 20 км ясно -3.4 -13.2 47 -7 -7 1026.2 1009.5
00 19.04 З 1 20 км ясно -5.6 -11.0 66 -8 -8 1025.6 1008.8
03 19.04 З 2 50 км ясно -0.6 -12.7 39 -3 -1 1024.4 1007.9 -6.1
06 19.04 СЗ 3 50 км ясно +6.5 -8.7 33 +4 +12 1022.4 1006.4
09 19.04 СЗ 4 50 км 4/4 1000 м
[Cu hum]
+8.7 -9.9 26 +7 +11 1020.6 1004.8
12 19.04 СЗ 4 50 км 9/9 1000 м
[Sc diur, vesp]
+9.4 -7.8 29 +7 +8 1019.6 1003.8
15 19.04 С 4 50 км 6/0
[Ac trans]
+4.9 -7.6 40 +2 +2 1020.0 1004.0 +10.4
18 19.04 З 1 20 км 3/0
[Ac trans]
+1.4 -6.8 54 0 0 1020.4 1004.2
21 19.04 З 1 20 км 10/0
[Ac As]
+2.2 -6.6 52 +1 +1 1019.8 1003.6
00 20.04 СЗ 2 20 км 10/0
[Ac As]
+1.9 -6.1 55 -1 -1 1019.6 1003.4
03 20.04 СЗ 2 50 км 10/0
[Ac As]
+3.0 -4.6 57 +1 +1 1020.0 1003.8 +1.1

 

Местоположение метеостанции Алапаевск (Свердловская область, Россия): широта 57.87 долгота 61.70 высота над уровнем моря 130 м.

В архиве по умолчанию представлена погода в Алапаевске за последнюю неделю. Архивные данные за месяц целиком и за предыдущие месяцы, начиная с января 2011 года, Вы можете получить, выбрав интересующий диапазон дат из раскрывающегося списка и нажав кнопку "Ввод!".


*Определитесь, кто Вы:
робот инопланетянин человек

Внимание! Время в таблицах - всемирное. Для получения местного времени необходимо прибавить поправку, которая равна 5 ч.

Смотрите также архив погоды в соседних городах и на ближайших метеорологических станциях:

Погода в Артемовском (Свердловская область, Россия) (57 км)
Погода в Ирбите (Свердловская область, Россия) (80 км)
Погода в Невьянске (Свердловская область, Россия) (96 км)
Погода в Нижнем Тагиле (Свердловская область, Россия) (96 км)
Погода в Туринске (Свердловская область, Россия) (119 км)
Погода в Верхотурье (Свердловская область, Россия) (123 км)
Погода в Кушве (Свердловская область, Россия) (125 км)
Погода в Камышлове (Свердловская область, Россия) (129 км)
Погода в Висиме (Свердловская область, Россия) (131 км)
Погода в Екатеринбурге (Свердловская область, Россия) (132 км)

Пояснения к столбцам:

Ветер - указаны скорость ветра в м/с - средняя за 10 мин, порывы в срок и между сроками (в фигурных скобках) и направление, откуда дует ветер: С - северный, СВ - северо-восточный, В - восточный, ЮВ - юго-восточный, Ю - южный, ЮЗ - юго-западный, З - западный, СЗ - северо-западный.
Видимость - горизонтальная дальность видимости в метрах или километрах. При видимости от 1 до 10 км при отсутствии осадков обычно наблюдается дымка, при ухудшении видимости до 1 км и менее - туман. В сухую погоду видимость может ухудшаться дымом, пылью или мглою.
Явления - указаны атмосферные явления, наблюдавшиеся в срок или в последний час перед сроком; фигурными скобками обозначены явления, наблюдавшиеся между сроками (за 1-3 часа до срока); квадратными скобками обозначены град или гололедные отложения с указанием их диаметра в мм.
Облачность - указаны через наклонную черту общая и нижняя облачность в баллах и высота нижней границы облаков в метрах; квадратными скобками обозначены формы облаков: Ci - перистые, Cs - перисто-слоистые, Cc - перисто-кучевые, Ac - высококучевые, As - высокослоистые, Sc - слоисто-кучевые, Ns - слоисто-дождевые, Cu - кучевые, Cb - кучево-дождевые. Подробнее классификацию облаков см. в Атласе облаков (PDF).
T - Температура воздуха - температура, измеренная на высоте 2 м над землей.
Td - Температура точки росы - температура, при понижении до которой содержащийся в воздухе водяной пар достигнет насыщения.
f - Относительная влажность воздуха - влажноcть воздуха, измеренная на высоте 2 м над землей.
Te - Эффективная температура - температура, которую ощущает одетый по сезону человек в тени. Характеристика душности погоды. При расчете учитывается влияние влажности воздуха и скорости ветра на теплоощущения человека.
Tes - Эффективная температура на солнце - температура, которую ощущает человек, с поправкой на солнечный нагрев. Характеристика знойности погоды. Зависит от высоты солнца над горизонтом, облачности и скорости ветра. Ночью, в пасмурную погоду, а также при ветре 12 м/с и более поправка равна нулю.
P - Атмосферное давление - приведенное к уровню моря атмосферное давление.
Po - Атмосферное давление - измеренное на уровне метеостанции атмосферное давление.
Tmin - Минимальная температура - минимум температуры воздуха на высоте 2 м над землей.
Tmax - Максимальная температура - максимум температуры воздуха на высоте 2 м над землей.
R - Количество осадков - Количество выпавших осадков за период времени, мм. При наведении курсора мыши на число - период времени, за который выпало указанное количество осадков.
R24 - Количество осадков - Количество выпавших осадков за 24 часа, мм.
S - Снежный покров - Высота снежного покрова, см. При наведении курсора мыши на число - состояние снежного покрова и степень покрытия местности в баллах.